Mobile, AL

6:54 AM CDT on April 23, 2018 (GMT -0500)
Mobile Regional

Weather History for KMOB - January, 2013

Change the Weather History Date:

Wednesday, January 2, 2013

  Actual Average Record
Temperature  
Mean Temperature 48 °F 50 °F  
Max Temperature 54 °F 61 °F 80 °F (2006)
Min Temperature 42 °F 40 °F 18 °F (1928)
Degree Days  
Heating Degree Days 17 15  
Month to date heating degree days 17 30  
Since 1 July heating degree days 618 692  
Cooling Degree Days 0 0  
Month to date cooling degree days 0 0  
Year to date cooling degree days 0 0  
Moisture  
Dew Point 43 °F    
Average Humidity 80    
Maximum Humidity 89    
Minimum Humidity 71    
Precipitation  
Precipitation 0.06 in 0.17 in 5.26 in (1936)
Month to date precipitation 0.17 0.33  
Year to date precipitation 0.17 0.33  
Snow  
Snow 0.00 in 0.00 in T in (2002)
Month to date snowfall 0.0 0.0  
Since 1 July snowfall 0.0 T  
Snow Depth 0.00 in    
Sea Level Pressure  
Sea Level Pressure 30.13 in    
Wind  
Wind Speed 11 mph (North)    
Max Wind Speed 18 mph    
Max Gust Speed 23 mph    
Visibility 9 miles    
Events Rain    
T = Trace of Precipitation, MM = Missing Value Source: NWS Daily Summary

Daily Weather History Graph

Daily Weather History Graph

Search for Another Location

Airport or City:

Astronomy

Jan. 02, 2013 Rise Set
Actual Time 6:50 AM CST 5:03 PM CST
Civil Twilight 6:24 AM CST 5:30 PM CST
Nautical Twilight 5:54 AM CST 6:00 PM CST
Astronomical Twilight 5:24 AM CST 6:29 PM CST
Moon 10:11 PM CST (1/2) 9:54 AM CST (1/2)
Length of Visible Light 11h 05m
Length of Day
10h 13m
Waning Gibbous, 75% of the Moon is Illuminated
Jan 2
Waning Gibbous
Jan 4
Last Quarter
Jan 11
New
Jan 18
First Quarter
Jan 26
Full

Hourly Weather History & Observations

Time (CST) Temp. Windchill Dew Point Humidity Pressure Visibility Wind Dir Wind Speed Gust Speed Precip Events Conditions
12:56 AM 54.0 °F - 50.0 °F 86% 30.02 in 10.0 mi North 11.5 mph - N/A   Overcast
1:25 AM 53.6 °F - 48.2 °F 82% 30.05 in 10.0 mi North 11.5 mph - N/A   Overcast
1:56 AM 53.1 °F - 48.9 °F 86% 30.04 in 10.0 mi North 10.4 mph - N/A   Overcast
2:56 AM 52.0 °F - 48.0 °F 86% 30.05 in 10.0 mi North 13.8 mph - N/A   Overcast
3:56 AM 51.1 °F - 46.9 °F 86% 30.05 in 10.0 mi North 11.5 mph - N/A   Overcast
4:52 AM 51.8 °F - 46.4 °F 82% 30.08 in 10.0 mi North 13.8 mph - N/A   Overcast
4:56 AM 51.1 °F - 46.9 °F 86% 30.07 in 10.0 mi North 10.4 mph - N/A   Overcast
5:56 AM 50.0 °F - 45.0 °F 83% 30.09 in 7.0 mi North 11.5 mph - N/A   Overcast
6:56 AM 48.9 °F - 44.1 °F 83% 30.10 in 7.0 mi North 11.5 mph - N/A   Overcast
7:56 AM 48.9 °F - 44.1 °F 83% 30.11 in 7.0 mi North 12.7 mph - N/A   Overcast
8:15 AM 48.2 °F - 44.6 °F 87% 30.14 in 7.0 mi NNW 8.1 mph - N/A   Overcast
8:56 AM 48.9 °F - 43.0 °F 80% 30.15 in 7.0 mi North 9.2 mph - N/A   Overcast
9:56 AM 50.0 °F - 43.0 °F 77% 30.15 in 7.0 mi NNE 11.5 mph - N/A   Overcast
10:56 AM 50.0 °F - 42.1 °F 74% 30.16 in 7.0 mi North 12.7 mph - N/A   Mostly Cloudy
11:16 AM 50.0 °F - 42.8 °F 76% 30.14 in 7.0 mi North 9.2 mph - N/A   Overcast
11:39 AM 51.8 °F - 42.8 °F 71% 30.13 in 7.0 mi NNW 11.5 mph - N/A   Overcast
11:56 AM 50.0 °F - 42.1 °F 74% 30.13 in 7.0 mi NNW 11.5 mph - N/A   Overcast
12:12 PM 50.0 °F - 42.8 °F 76% 30.11 in 7.0 mi North 10.4 mph - N/A   Overcast
12:56 PM 50.0 °F - 41.0 °F 71% 30.10 in 7.0 mi North 10.4 mph - N/A   Overcast
1:56 PM 51.1 °F - 42.1 °F 71% 30.09 in 10.0 mi North 12.7 mph - N/A   Overcast
2:56 PM 50.0 °F - 42.1 °F 74% 30.10 in 10.0 mi North 8.1 mph - 0.00 in   Overcast
3:56 PM 48.9 °F - 42.1 °F 77% 30.14 in 10.0 mi NNW 10.4 mph - N/A   Overcast
4:56 PM 48.0 °F - 42.1 °F 80% 30.17 in 10.0 mi NNW 10.4 mph - 0.00 in   Overcast
5:56 PM 46.9 °F - 42.1 °F 83% 30.16 in 10.0 mi NNW 9.2 mph - N/A   Overcast
6:56 PM 46.0 °F 40.2 °F 41.0 °F 83% 30.17 in 10.0 mi NNW 12.7 mph - N/A   Overcast
7:56 PM 46.0 °F 40.6 °F 39.9 °F 79% 30.17 in 10.0 mi North 11.5 mph - N/A   Overcast
8:11 PM 46.4 °F 41.5 °F 39.2 °F 76% 30.18 in 10.0 mi North 10.4 mph - N/A   Overcast
8:56 PM 45.0 °F 40.1 °F 39.9 °F 82% 30.19 in 10.0 mi North 9.2 mph - N/A   Overcast
9:15 PM 44.6 °F 39.2 °F 39.2 °F 81% 30.19 in 10.0 mi North 10.4 mph - 0.00 in Rain Light Rain
9:56 PM 44.1 °F 39.0 °F 39.9 °F 85% 30.19 in 8.0 mi North 9.2 mph - 0.01 in Rain Rain
10:56 PM 43.0 °F 37.7 °F 39.9 °F 89% 30.20 in 8.0 mi North 9.2 mph - 0.01 in Rain Light Rain
11:03 PM 42.8 °F 37.5 °F 39.2 °F 87% 30.20 in 9.0 mi North 9.2 mph - 0.00 in Rain Light Rain
11:39 PM 42.8 °F 37.0 °F 39.2 °F 87% 30.21 in 8.0 mi North 10.4 mph - 0.02 in Rain Light Rain
11:48 PM 42.8 °F 39.3 °F 39.2 °F 87% 30.20 in 8.0 mi North 5.8 mph - 0.03 in Rain Light Rain
11:56 PM 42.1 °F 36.6 °F 39.0 °F 89% 30.20 in 8.0 mi North 9.2 mph - 0.04 in Rain Rain